Regional Weather Roundup
Issued by NWS Mobile, AL

Home | Current Version | Previous Version | Text Only | Print | Product List | Glossary On
Versions: 1 2 3 4 5 6 7 8 9 10 11 12 13 14 15 16 17 18 19 20 21 22 23 24 25 26 27
000
ASUS44 KMOB 311612
RWRMOB
REGIONAL WEATHER ROUNDUP
NATIONAL WEATHER SERVICE MOBILE AL
1100 AM CDT TUE MAY 31 2016

NOTE: "FAIR" INDICATES FEW OR NO CLOUDS BELOW 12,000 FEET WITH NO
      SIGNIFICANT WEATHER AND/OR OBSTRUCTIONS TO VISIBILITY.

  * THESE STATIONS ARE PART OF THE UNIVERSITY OF SOUTH ALABAMA
    MESONET AND ARE NOT UNDER NWS OR FAA QUALITY CONTROL.

ALZ061>064-311700-
COASTAL ALABAMA

CITY           SKY/WX    TMP DP  RH WIND       PRES   REMARKS
MOBILE REG APT PTSUNNY   88  70  55 N6        29.97S
BROOKLEY FIELD MOSUNNY   83  72  69 SE7       29.97S
USA CAMPUS*    NOT AVBL
DOG RIVER*     NOT AVBL


CITY           SKY/WX    TMP DP  RH WIND       PRES   REMARKS
MOUNT VERNON*  NOT AVBL
SARALAND*      NOT AVBL
BAY MINETTE*   NOT AVBL
LOXLEY*        NOT AVBL
ROBERTSDALE*   NOT AVBL
FAIRHOPE*      NOT AVBL
ELBERTA*       NOT AVBL
FOLEY*         NOT AVBL
GRAND BAY*     NOT AVBL
DAUPHIN ISLND* NOT AVBL
BON SCOUR NWR* NOT AVBL
GULF SHORES    MOSUNNY   85  72  63 N3        29.95F

$$

ALZ051>060-311700-
INTERIOR SOUTHWEST AND SOUTH CENTRAL ALABAMA

CITY           SKY/WX    TMP DP  RH WIND       PRES   REMARKS
GREENVILLE     SUNNY     90  62  39 VRB3      29.95S
EVERGREEN      SUNNY     90  65  43 SE5       29.95F
CASTLEBERRY*   NOT AVBL
ATMORE*        NOT AVBL
DIXIE*         NOT AVBL
ANDALUSIA/OPP  SUNNY     94  65  38 E3        29.95S HX  96
ANDALUSIA*     NOT AVBL
FLORALA APT    SUNNY     89  66  46 CALM      29.97S
FLORALA*       NOT AVBL

$$

FLZ001>006-311700-
WESTERN FLORIDA PANHANDLE

CITY           SKY/WX    TMP DP  RH WIND       PRES   REMARKS
PENSACOLA      SUNNY     88  68  51 VRB3      29.95F
NAS PENSACOLA  NOT AVBL
MILTON         MOSUNNY   89  69  51 VRB3      29.95F
WHTNG S FIELD  MOSUNNY   90  70  51 CALM      29.95F HX  95


CITY           SKY/WX    TMP DP  RH WIND       PRES   REMARKS
WALNUT HILL*   NOT AVBL
JAY*           NOT AVBL
DUKE FIELD     MOSUNNY   88  65  45 VRB5      29.95F
CRESTVIEW      SUNNY     90  67  46 NW5       29.96F
VALPARAISO     MOSUNNY   85  73  66 S10       29.95F
DESTIN         SUNNY     87  76  69 VRB6      29.96S HX  97

$$

MSZ076-079-311700-
INTERIOR SOUTHEAST MISSISSIPPI

CITY           SKY/WX    TMP DP  RH WIND       PRES   REMARKS
LEAKESVILLE*   NOT AVBL
AGRICOLA*      NOT AVBL

$$

MARINE OBSERVATIONS

STATION/POSITION TIME  TEMP    WIND        PRES    WAVE
                       AIR SEA DIR/SP/G            HT/PER
                 (UTC) (F)     (DEG/KT/KT) (MB)    (FT/S)
PASCAGOULA       1500   83     340/  4/  6 1014.2F
PETIT BOIS ISLND 1500   82     330/  4/  5 1015.1S
GRAND BAY        1400   81     310/  5     1016.0S
KATRINA CUT      1500   80     300/  5     1015.2S
CEDAR POINT      1500   80     280/  5     1014.6S
E DAUPHIN ISLAND 1500   81     290/  5/  6 1014.2F
MIDDLE BAY LIGHT 1500   85     330/  1     1014.6F
USCG MOBILE BAY  1500   84 81   CALM  /  4 1014.9F
STATE DOCKS      1500   89 81              1014.3F
MEAHER PARK      1500   80     220/  2     1013.2F
WEEKS BAY        1400   83                   N/A
FORT MORGAN      1500   81     320/  6/  6 1014.1S
12 S ORANGE BCH  1550   82 83              1014.0S   1
PENSACOLA BAY    1500      81  310/  1/  5 1014.6F
64 S DAUPHIN ISL 1600   81 81  280/  2/  4 1015.0R

$$

SELECTED LOCATIONS ACROSS THE REGION

CITY           SKY/WX    TMP DP  RH WIND       PRES   REMARKS
NEW ORLEANS    PTSUNNY   85  72  65 N7        29.96S
GULFPORT       MOSUNNY   86  69  56 CALM      29.95S
PASCAGOULA AP  SUNNY     87  70  56 VRB5      29.95F
PASCAGOULA*    NOT AVBL
HATTIESBURG    SUNNY     86  70  58 CALM      29.96R
LAUREL         SUNNY     86 N/A N/A N7        29.98R
MERIDIAN       SUNNY     91  67  44 NW8       29.96S
JACKSON        CLOUDY    84  67  56 NE6       29.96R
MONTGOMERY     SUNNY     90  66  45 SW3       29.95F
TROY           SUNNY     90  67  46 E5        29.96F
KINSTON*       NOT AVBL
GENEVA*        NOT AVBL
ASHFORD*       NOT AVBL
DOTHAN         SUNNY     90  63  40 MISG      29.99S
PANAMA CITY    SUNNY     87  69  54 CALM      29.95S

$$





USA.gov is the U.S. government's official web portal to all federal, state and local government web resources and services.